Regional Weather Roundup
Issued by NWS Sterling, VA

Home | Current Version | Previous Version | Graphics & Text | Print | Product List | Glossary On
Versions: 1 2 3 4 5 6 7 8 9 10 11 12 13 14 15 16 17 18 19 20 21 22 23 24 25 26 27 28 29 30 31 32 33 34 35 36 37 38 39 40 41 42 43 44 45 46 47 48 49 50
000
ASUS41 KLWX 181811
RWRLWX

REGIONAL WEATHER ROUNDUP
NATIONAL WEATHER SERVICE BALTIMORE MD/WASHINGTON DC
100 PM EST MON DEC 18 2017

Note: "FAIR" indicates few or no clouds below 12,000 feet
with no significant weather and/or obstructions to visibility.
 TC=TEMPERATURE CELSIUS

 * =Non NWS site. Station does not report precipitation (e.g. rain,
    snow, etc.), thunder, or fog.

DCZ001-MDZ009-015-VAZ040>042-051-053>054-181900-
WASHINGTON METRO

CITY           SKY/WX    TMP DP  RH WIND       PRES   REMARKS
WASHINGTON NAT MOSUNNY   53  34  48 SE3       30.04F
DULLES         MOSUNNY   54  35  48 SW3       30.03F
ANDREWS AFB    MOSUNNY   55  34  44 NW5       30.02F
FT BELVOIR     SUNNY     55  35  46 SE6       30.04F
QUANTICO       MOSUNNY   48  35  60 SW6       30.06F
COLLEGE PARK*  SUNNY     53  34  48 S5        30.03F
LEESBURG*      SUNNY     55  39  54 S6        30.02F
MANASSAS*      SUNNY     55  36  48 VRB6      30.03F
GAITHERSBURG*  SUNNY     53  36  52 W7        30.02F

$$

MDZ006>007-011-014-181900-
BALTIMORE METRO

CITY           SKY/WX    TMP DP  RH WIND       PRES   REMARKS
BWI AIRPORT    PTSUNNY   53  36  52 SW6       30.02F
MD SCIENCE CTR   N/A     55  36  48 MISG      30.04F
MARTIN STATE   PTSUNNY   48  39  71 SE3       30.05F
ANNAPOLIS      MOSUNNY   44  42  93 SE8       30.03F FOG
FORT MEADE*    MOSUNNY   52  36  54 W7        30.05F

$$

MDZ012-015-019>023-181900-
MARYLAND EASTERN SHORE

CITY           SKY/WX    TMP DP  RH WIND       PRES   REMARKS
OCEAN CITY     SUNNY     54  36  50 W7        30.04F
SALISBURY      SUNNY     53  36  52 W8        30.03F
BAY BRIDGE AP* CLOUDY    48  37  66 CALM      30.04F HAZE
CAMBRIDGE*     SUNNY     52  34  50 CALM      30.04F
EASTON*        MOSUNNY   54  36  50 CALM      30.07F

$$

MDZ017>025-181900-
SOUTHERN MARYLAND

CITY           SKY/WX    TMP DP  RH WIND       PRES   REMARKS
PATUXENT RIVER MOSUNNY   50  36  58 SE7       30.04F
ST INIGOES     MOSUNNY   50  35  56 S6        30.05F
LEONARDTOWN*   SUNNY     54  37  54 SW5       30.06F

$$

MDZ003>005-181900-
NORTH CENTRAL MARYLAND

CITY           SKY/WX    TMP DP  RH WIND       PRES   REMARKS
FREDERICK*     SUNNY     52  30  43 SW7       30.05F
HAGERSTOWN APT MOSUNNY   49  35  58 CALM      30.01F HAZE
WESTMINSTER*   PTSUNNY   48  37  66 SW5       30.01F

$$

MDZ501>502-181900-
WESTERN MARYLAND

CITY           SKY/WX    TMP DP  RH WIND       PRES   REMARKS
OAKLAND*       CLOUDY    34  34 100 SW10G17   29.95S VSB<1/4 WCI  26
CUMBERLAND*    CLOUDY    50  39  66 SW8       30.06S

$$

VAZ025>031-181900-
SHENANDOAH VALLEY

CITY           SKY/WX    TMP DP  RH WIND       PRES   REMARKS
WINCHESTER*    SUNNY     52  36  54 S12       30.00F
FRONT ROYAL*   FAIR      55  37  50 SW7       29.99F
LURAY*         PTSUNNY   54  41  62 SW14      30.00F
NEW MARKET*    PTSUNNY   54  40  59 S6        30.00F
STAUNTON*      CLOUDY    53  40  63 S13       30.04F
WAYNESBORO*    CLOUDY    54  42  63 SW8G17    30.04F

$$

WVZ021-048>050-054>055-181900-
EASTERN WEST VIRGINIA PANHANDLE

CITY           SKY/WX    TMP DP  RH WIND       PRES   REMARKS
MARTINSBURG    MOSUNNY   52  36  54 VRB3      30.00F
PETERSBURG*    PTSUNNY   53  40  61 W9        30.01R

$$

VAZ036>039-050-181900-
CENTRAL FOOTHILLS

CITY           SKY/WX    TMP DP  RH WIND       PRES   REMARKS
CHARLOTTESVILL SUNNY     59  41  51 SW10G18   30.03F
CULPEPER*      FAIR      57  38  47 SW8       30.04F
ORANGE*        SUNNY     55  39  54 SW17      30.04F
GORDONSVILLE*  SUNNY     56  42  58 SW13G20   30.03F
WARRENTON*     SUNNY     56  34  42 SW6       30.03F

$$

VAZ055>057-181900-
NORTH AND CENTRAL PIEDMONT

CITY           SKY/WX    TMP DP  RH WIND       PRES   REMARKS
FREDERICKSBRG* MOSUNNY   56  41  56 SW9       30.04F
STAFFORD*      CLOUDY    56  38  50 S7        30.08F

$$

NCZ024-NYZ072-PAZ021-071-VAZ022-071-181900-
OTHER REGIONAL OBSERVATIONS

CITY           SKY/WX    TMP DP  RH WIND       PRES   REMARKS
NEW YORK CITY  CLOUDY    41  33  73 NW7       30.04F
PHILADELPHIA   PTSUNNY   48  35  60 W5        30.02F
PITTSBURGH     CLOUDY    43  39  86 SW9       29.98F
ROANOKE        MOSUNNY   56  43  61 W10G20    30.08F
RICHMOND       PTSUNNY   56  40  55 W9        30.06F
RALEIGH        PTSUNNY   59  42  53 SW8       30.11F

$$

ANZ530>537-181900-
MARINE OBSERVATIONS

STATION/POSITION TIME  TEMP    WIND        PRES
                       AIR SEA DIR/SP/G
                 (UTC) (F)     (DEG/KT/KT) (MB)
THOMAS PT LIGHT  1800   44 43  170/  9/  9   N/A
BALT KEY BRIDGE  1748   42     130/  4/  5 1016.9F
COVE POINT       1748   44     180/  6/  7 1018.2F
LEWISETTA        1748   46 42   60/  4/  4 1017.6F
SOLOMONS ISLAND  1748   46 45   80/  7/  8 1017.1F
PINEY POINT      1748          140/  2/  2   N/A

$$




USA.gov is the U.S. government's official web portal to all federal, state and local government web resources and services.